Regional Weather Roundup
Issued by NWS

Home | Current Version | Previous Version | Graphics & Text | Print | Product List | Glossary On
Versions: 1 2 3 4 5 6 7 8 9 10 11 12 13 14 15 16 17 18 19 20 21 22 23 24 25 26 27 28 29 30 31 32 33 34 35 36 37 38 39 40 41 42 43 44 45 46 47 48 49 50
000
ASUS44 KMEG 311500
RWRTN
TENNESSEE HOURLY STATE WEATHER ROUNDUP
NATIONAL WEATHER SERVICE MEMPHIS TN
1000 AM CDT MON AUG 31 2015

TNZ002-004-019-021-049-052-054-088>092-311600-
WEST TENNESSEE

CITY           SKY/WX    TMP DP  RH WIND       PRES   REMARKS
MEMPHIS INTL   MOSUNNY   80  67  64 SE5       30.11R
NWS MEMPHIS      N/A     78 N/A N/A MISG        N/A
JACKSON        SUNNY     74  69  85 CALM      30.13S
DYERSBURG      SUNNY    N/A N/A N/A MISG        N/A
UNION CITY     SUNNY     75  72  88 S5        30.12S
PARIS          SUNNY     75  66  73 SW3       30.15R
LEXINGTON      SUNNY     75  66  73 CALM      30.13S
$$

TNZ008-025-027-028-033-062-065-066-311600-
NORTH MIDDLE TENNESSEE

CITY           SKY/WX    TMP DP  RH WIND       PRES   REMARKS
NASHVILLE      MOSUNNY   78  65  63 VRB3      30.16S
CLARKSVILLE    SUNNY     77  66  68 NW3       30.15S
COOKEVILLE     SUNNY     81  70  69 W3        30.16S
CROSSVILLE     SUNNY     77  63  61 CALM      30.21R
$$

TNZ061-075-076-078-094-096-097-311600-
SOUTH MIDDLE TENNESSEE

CITY           SKY/WX    TMP DP  RH WIND       PRES   REMARKS
FAYETTEVILLE   MOSUNNY   75  64  69 CALM      30.15S
TULLAHOMA      MOSUNNY   75  64  69 VRB3      30.17S
WINCHESTER     SUNNY     73  66  78 CALM      30.16R
SHELBYVILLE    PTSUNNY   79  68  69 SW3       30.16F
$$

TNZ017-018-042-046-047-311600-
NORTHEAST TENNESSEE

CITY           SKY/WX    TMP DP  RH WIND       PRES   REMARKS
TRI CITIES     MOSUNNY   74  64  71 CALM      30.19S
$$

TNZ012-013-036-069-073-074-311600-
CENTRAL EAST TENNESSEE

CITY           SKY/WX    TMP DP  RH WIND       PRES   REMARKS
KNOXVILLE      CLOUDY    77  65  66 CALM      30.17R
OAK RIDGE      MOSUNNY   77  65  66 SE5       30.18R
GATLINBURG     SUNNY     79  63  57 CALM      30.17R
$$

TNZ083-085-099-311600-
SOUTHEAST TENNESSEE

CITY           SKY/WX    TMP DP  RH WIND       PRES   REMARKS
CHATTANOOGA    MOSUNNY   77  65  66 CALM      30.16R
$$

SKY/WX REPORTED AS FAIR MEANS FEW OR NO CLOUDS BELOW
12 THOUSAND FEET.




USA.gov is the U.S. government's official web portal to all federal, state and local government web resources and services.